Location: Clifton Park
(41.4873°N, 81.8024°W)
Time: 13:08:13
(UTC+00:00)

ATLAS 2AS CENTAUR R/B - Pass Details

Date: 21 January 2020
Orbit: 929 x 1283 km, 63.7° (Epoch: 08 February)

Event Time Altitude Azimuth Distance (km) Brightness Sun altitude
Rises 11:01:24 0° 211° (SSW) 4,160 5.6 -19.8°
Reaches altitude 10° 11:04:08 10° 211° (SSW) 3,226 5.0 -19.3°
Maximum altitude 11:12:04 89° 122° (ESE) 1,287 3.1 -17.9°
Drops below altitude 10° 11:20:06 10° 35° (NE) 3,272 5.5 -16.4°
Sets 11:22:54 0° 36° (NE) 4,223 6.1 -15.9°
